Date_Time,Julian_Date,Latitude,Longitude,Instrument_Depth,U,V,Speed,Direction
(yyyy-mm-dd hh:mn:ss UTC),(JD),(+ deg. North),(+ deg. East),(m),(cm/s),(cm/s),(cm/s),(deg True)
1977-10-18 23:59:00 UTC,2443435.499306,29.1900,-87.6367,0090,1.74,-0.20,1.7515,96.5569
1977-10-19 00:59:00 UTC,2443435.540972,29.1900,-87.6367,0090,1.48,-0.11,1.4841,94.2506
1977-10-19 01:59:00 UTC,2443435.582639,29.1900,-87.6367,0090,1.55,-0.15,1.5572,95.5275
1977-10-19 02:59:00 UTC,2443435.624306,29.1900,-87.6367,0090,1.50,-0.07,1.5016,92.6719
1977-10-19 03:59:00 UTC,2443435.665972,29.1900,-87.6367,0090,1.37,0.01,1.3700,89.5818
1977-10-19 04:59:00 UTC,2443435.707639,29.1900,-87.6367,0090,1.02,0.16,1.0325,81.0851
1977-10-19 05:59:00 UTC,2443435.749306,29.1900,-87.6367,0090,0.73,0.33,0.8011,65.6744
1977-10-19 06:59:00 UTC,2443435.790972,29.1900,-87.6367,0090,0.62,0.55,0.8288,48.4239
1977-10-19 07:59:00 UTC,2443435.832639,29.1900,-87.6367,0090,0.50,0.60,0.7810,39.8056
1977-10-19 08:59:00 UTC,2443435.874306,29.1900,-87.6367,0090,0.58,0.75,0.9481,37.7160
1977-10-19 09:59:00 UTC,2443435.915972,29.1900,-87.6367,0090,0.64,0.99,1.1789,32.8812
1977-10-19 10:59:00 UTC,2443435.957639,29.1900,-87.6367,0090,0.41,0.83,0.9257,26.2883
1977-10-19 11:59:00 UTC,2443435.999306,29.1900,-87.6367,0090,0.44,1.21,1.2875,19.9831
1977-10-19 12:59:00 UTC,2443436.040972,29.1900,-87.6367,0090,0.75,1.57,1.7399,25.5341
1977-10-19 13:59:00 UTC,2443436.082639,29.1900,-87.6367,0090,1.01,1.57,1.8668,32.7537
1977-10-19 14:59:00 UTC,2443436.124306,29.1900,-87.6367,0090,1.37,1.55,2.0687,41.4725
1977-10-19 15:59:00 UTC,2443436.165972,29.1900,-87.6367,0090,1.81,1.43,2.3067,51.6893
1977-10-19 16:59:00 UTC,2443436.207639,29.1900,-87.6367,0090,1.79,1.33,2.2300,53.3870
1977-10-19 17:59:00 UTC,2443436.249306,29.1900,-87.6367,0090,1.60,1.21,2.0060,52.9016
1977-10-19 18:59:00 UTC,2443436.290972,29.1900,-87.6367,0090,1.68,0.89,1.9012,62.0871
1977-10-19 19:59:00 UTC,2443436.332639,29.1900,-87.6367,0090,1.88,0.51,1.9479,74.8223
1977-10-19 20:59:00 UTC,2443436.374306,29.1900,-87.6367,0090,2.03,0.28,2.0492,82.1467
1977-10-19 21:59:00 UTC,2443436.415972,29.1900,-87.6367,0090,2.24,0.10,2.2422,87.4438
1977-10-19 22:59:00 UTC,2443436.457639,29.1900,-87.6367,0090,2.14,-0.12,2.1434,93.2095
1977-10-19 23:59:00 UTC,2443436.499306,29.1900,-87.6367,0090,2.10,-0.45,2.1477,102.0947
1977-10-20 00:59:00 UTC,2443436.540972,29.1900,-87.6367,0090,2.08,-0.50,2.1393,103.5166
1977-10-20 01:59:00 UTC,2443436.582639,29.1900,-87.6367,0090,1.67,-0.15,1.6767,95.1326
1977-10-20 02:59:00 UTC,2443436.624306,29.1900,-87.6367,0090,1.52,-0.06,1.5212,92.2605
1977-10-20 03:59:00 UTC,2443436.665972,29.1900,-87.6367,0090,1.39,0.05,1.3909,87.9399
1977-10-20 04:59:00 UTC,2443436.707639,29.1900,-87.6367,0090,1.32,0.21,1.3366,80.9605
1977-10-20 05:59:00 UTC,2443436.749306,29.1900,-87.6367,0090,1.37,0.23,1.3892,80.4699
1977-10-20 06:59:00 UTC,2443436.790972,29.1900,-87.6367,0090,1.40,0.21,1.4157,81.4692
1977-10-20 07:59:00 UTC,2443436.832639,29.1900,-87.6367,0090,1.21,0.22,1.2298,79.6951
1977-10-20 08:59:00 UTC,2443436.874306,29.1900,-87.6367,0090,1.05,0.25,1.0794,76.6075
1977-10-20 09:59:00 UTC,2443436.915972,29.1900,-87.6367,0090,1.14,0.32,1.1841,74.3205
1977-10-20 10:59:00 UTC,2443436.957639,29.1900,-87.6367,0090,1.14,0.43,1.2184,69.3339
1977-10-20 11:59:00 UTC,2443436.999306,29.1900,-87.6367,0090,1.01,0.64,1.1957,57.6391
1977-10-20 12:59:00 UTC,2443437.040972,29.1900,-87.6367,0090,0.98,0.86,1.3038,48.7314
1977-10-20 13:59:00 UTC,2443437.082639,29.1900,-87.6367,0090,1.07,1.02,1.4783,46.3704
1977-10-20 14:59:00 UTC,2443437.124306,29.1900,-87.6367,0090,1.19,1.07,1.6003,48.0394
1977-10-20 15:59:00 UTC,2443437.165972,29.1900,-87.6367,0090,1.48,0.92,1.7426,58.1340
1977-10-20 16:59:00 UTC,2443437.207639,29.1900,-87.6367,0090,1.74,0.81,1.9193,65.0372
1977-10-20 17:59:00 UTC,2443437.249306,29.1900,-87.6367,0090,1.79,0.83,1.9731,65.1234
1977-10-20 18:59:00 UTC,2443437.290972,29.1900,-87.6367,0090,1.76,0.94,1.9953,61.8937
1977-10-20 19:59:00 UTC,2443437.332639,29.1900,-87.6367,0090,1.92,0.97,2.1511,63.1967
1977-10-20 20:59:00 UTC,2443437.374306,29.1900,-87.6367,0090,2.14,0.75,2.2676,70.6861
1977-10-20 21:59:00 UTC,2443437.415972,29.1900,-87.6367,0090,2.29,0.66,2.3832,73.9225
1977-10-20 22:59:00 UTC,2443437.457639,29.1900,-87.6367,0090,2.32,0.49,2.3712,78.0740
1977-10-20 23:59:00 UTC,2443437.499306,29.1900,-87.6367,0090,2.37,0.25,2.3831,83.9784
1977-10-21 00:59:00 UTC,2443437.540972,29.1900,-87.6367,0090,2.41,0.26,2.4240,83.8425
1977-10-21 01:59:00 UTC,2443437.582639,29.1900,-87.6367,0090,2.40,0.26,2.4140,83.8171
1977-10-21 02:59:00 UTC,2443437.624306,29.1900,-87.6367,0090,2.41,0.25,2.4229,84.0776
1977-10-21 03:59:00 UTC,2443437.665972,29.1900,-87.6367,0090,2.35,0.03,2.3502,89.2686
1977-10-21 04:59:00 UTC,2443437.707639,29.1900,-87.6367,0090,2.35,-0.11,2.3526,92.6800
1977-10-21 05:59:00 UTC,2443437.749306,29.1900,-87.6367,0090,2.38,-0.11,2.3825,92.6462
1977-10-21 06:59:00 UTC,2443437.790972,29.1900,-87.6367,0090,2.27,-0.24,2.2827,96.0353
1977-10-21 07:59:00 UTC,2443437.832639,29.1900,-87.6367,0090,1.87,-0.08,1.8717,92.4497
1977-10-21 08:59:00 UTC,2443437.874306,29.1900,-87.6367,0090,1.46,0.21,1.4750,81.8150
1977-10-21 09:59:00 UTC,2443437.915972,29.1900,-87.6367,0090,1.26,0.36,1.3104,74.0546
1977-10-21 10:59:00 UTC,2443437.957639,29.1900,-87.6367,0090,1.33,0.57,1.4470,66.8014
1977-10-21 11:59:00 UTC,2443437.999306,29.1900,-87.6367,0090,1.46,0.83,1.6794,60.3821
1977-10-21 12:59:00 UTC,2443438.040972,29.1900,-87.6367,0090,1.48,1.06,1.8204,54.3891
1977-10-21 13:59:00 UTC,2443438.082639,29.1900,-87.6367,0090,1.41,1.25,1.8843,48.4422
1977-10-21 14:59:00 UTC,2443438.124306,29.1900,-87.6367,0090,1.44,1.30,1.9400,47.9250
1977-10-21 15:59:00 UTC,2443438.165972,29.1900,-87.6367,0090,1.51,1.20,1.9288,51.5258
1977-10-21 16:59:00 UTC,2443438.207639,29.1900,-87.6367,0090,1.50,1.39,2.0450,47.1798
1977-10-21 17:59:00 UTC,2443438.249306,29.1900,-87.6367,0090,1.52,1.54,2.1638,44.6255
1977-10-21 18:59:00 UTC,2443438.290972,29.1900,-87.6367,0090,1.64,1.62,2.3052,45.3515
1977-10-21 19:59:00 UTC,2443438.332639,29.1900,-87.6367,0090,1.82,1.75,2.5249,46.1233
1977-10-21 20:59:00 UTC,2443438.374306,29.1900,-87.6367,0090,1.99,1.65,2.5851,50.3363
1977-10-21 21:59:00 UTC,2443438.415972,29.1900,-87.6367,0090,2.06,1.48,2.5365,54.3048
1977-10-21 22:59:00 UTC,2443438.457639,29.1900,-87.6367,0090,2.26,1.21,2.5635,61.8355
1977-10-21 23:59:00 UTC,2443438.499306,29.1900,-87.6367,0090,2.77,0.82,2.8888,73.5097
1977-10-22 00:59:00 UTC,2443438.540972,29.1900,-87.6367,0090,2.81,0.55,2.8633,78.9255
1977-10-22 01:59:00 UTC,2443438.582639,29.1900,-87.6367,0090,2.50,0.54,2.5577,77.8114
1977-10-22 02:59:00 UTC,2443438.624306,29.1900,-87.6367,0090,2.48,0.52,2.5339,78.1579
1977-10-22 03:59:00 UTC,2443438.665972,29.1900,-87.6367,0090,2.50,0.19,2.5072,85.6539
1977-10-22 04:59:00 UTC,2443438.707639,29.1900,-87.6367,0090,2.23,-0.17,2.2365,94.3594
1977-10-22 05:59:00 UTC,2443438.749306,29.1900,-87.6367,0090,2.40,-0.05,2.4005,91.1935
1977-10-22 06:59:00 UTC,2443438.790972,29.1900,-87.6367,0090,2.40,-0.03,2.4002,90.7162
1977-10-22 07:59:00 UTC,2443438.832639,29.1900,-87.6367,0090,1.67,-0.08,1.6719,92.7426
1977-10-22 08:59:00 UTC,2443438.874306,29.1900,-87.6367,0090,1.43,0.13,1.4359,84.8056
1977-10-22 09:59:00 UTC,2443438.915972,29.1900,-87.6367,0090,1.35,0.16,1.3594,83.2409
1977-10-22 10:59:00 UTC,2443438.957639,29.1900,-87.6367,0090,1.11,0.24,1.1356,77.7995
1977-10-22 11:59:00 UTC,2443438.999306,29.1900,-87.6367,0090,1.11,0.66,1.2914,59.2645
1977-10-22 12:59:00 UTC,2443439.040972,29.1900,-87.6367,0090,1.15,0.96,1.4980,50.1455
1977-10-22 13:59:00 UTC,2443439.082639,29.1900,-87.6367,0090,1.07,1.24,1.6378,40.7910
1977-10-22 14:59:00 UTC,2443439.124306,29.1900,-87.6367,0090,1.06,1.43,1.7800,36.5480
1977-10-22 15:59:00 UTC,2443439.165972,29.1900,-87.6367,0090,1.23,1.36,1.8337,42.1266
1977-10-22 16:59:00 UTC,2443439.207639,29.1900,-87.6367,0090,1.35,1.45,1.9812,42.9546
1977-10-22 17:59:00 UTC,2443439.249306,29.1900,-87.6367,0090,1.32,1.58,2.0588,39.8768
1977-10-22 18:59:00 UTC,2443439.290972,29.1900,-87.6367,0090,1.35,1.63,2.1165,39.6323
1977-10-22 19:59:00 UTC,2443439.332639,29.1900,-87.6367,0090,1.41,1.61,2.1401,41.2111
1977-10-22 20:59:00 UTC,2443439.374306,29.1900,-87.6367,0090,1.32,1.38,1.9097,43.7270
1977-10-22 21:59:00 UTC,2443439.415972,29.1900,-87.6367,0090,1.29,1.32,1.8457,44.3415
1977-10-22 22:59:00 UTC,2443439.457639,29.1900,-87.6367,0090,1.48,1.48,2.0930,45.0000
1977-10-22 23:59:00 UTC,2443439.499306,29.1900,-87.6367,0090,1.51,1.36,2.0322,47.9918
1977-10-23 00:59:00 UTC,2443439.540972,29.1900,-87.6367,0090,1.67,1.20,2.0564,54.3004
1977-10-23 01:59:00 UTC,2443439.582639,29.1900,-87.6367,0090,1.88,0.93,2.0975,63.6793
1977-10-23 02:59:00 UTC,2443439.624306,29.1900,-87.6367,0090,1.91,0.72,2.0412,69.3454
1977-10-23 03:59:00 UTC,2443439.665972,29.1900,-87.6367,0090,1.93,0.70,2.0530,70.0646
1977-10-23 04:59:00 UTC,2443439.707639,29.1900,-87.6367,0090,1.94,0.60,2.0307,72.8143
1977-10-23 05:59:00 UTC,2443439.749306,29.1900,-87.6367,0090,1.77,0.47,1.8313,75.1290
1977-10-23 06:59:00 UTC,2443439.790972,29.1900,-87.6367,0090,1.55,0.51,1.6317,71.7871
1977-10-23 07:59:00 UTC,2443439.832639,29.1900,-87.6367,0090,1.53,0.71,1.6867,65.1062
1977-10-23 08:59:00 UTC,2443439.874306,29.1900,-87.6367,0090,1.59,0.70,1.7373,66.2384
1977-10-23 09:59:00 UTC,2443439.915972,29.1900,-87.6367,0090,1.63,0.54,1.7171,71.6706
1977-10-23 10:59:00 UTC,2443439.957639,29.1900,-87.6367,0090,1.49,0.62,1.6138,67.4074
1977-10-23 11:59:00 UTC,2443439.999306,29.1900,-87.6367,0090,1.37,0.67,1.5251,63.9390
1977-10-23 12:59:00 UTC,2443440.040972,29.1900,-87.6367,0090,1.10,0.76,1.3370,55.3591
1977-10-23 13:59:00 UTC,2443440.082639,29.1900,-87.6367,0090,0.83,0.88,1.2097,43.3252
1977-10-23 14:59:00 UTC,2443440.124306,29.1900,-87.6367,0090,0.80,1.04,1.3121,37.5686
1977-10-23 15:59:00 UTC,2443440.165972,29.1900,-87.6367,0090,0.74,1.22,1.4269,31.2392
1977-10-23 16:59:00 UTC,2443440.207639,29.1900,-87.6367,0090,0.82,1.13,1.3962,35.9670
1977-10-23 17:59:00 UTC,2443440.249306,29.1900,-87.6367,0090,0.93,1.02,1.3803,42.3575
1977-10-23 18:59:00 UTC,2443440.290972,29.1900,-87.6367,0090,0.90,1.26,1.5484,35.5377
1977-10-23 19:59:00 UTC,2443440.332639,29.1900,-87.6367,0090,0.99,1.59,1.8730,31.9081
1977-10-23 20:59:00 UTC,2443440.374306,29.1900,-87.6367,0090,1.17,1.82,2.1636,32.7352
1977-10-23 21:59:00 UTC,2443440.415972,29.1900,-87.6367,0090,1.31,1.99,2.3825,33.3566
1977-10-23 22:59:00 UTC,2443440.457639,29.1900,-87.6367,0090,1.40,2.01,2.4495,34.8579
1977-10-23 23:59:00 UTC,2443440.499306,29.1900,-87.6367,0090,1.53,1.91,2.4472,38.6964
1977-10-24 00:59:00 UTC,2443440.540972,29.1900,-87.6367,0090,1.63,1.81,2.4358,42.0047
1977-10-24 01:59:00 UTC,2443440.582639,29.1900,-87.6367,0090,1.69,1.64,2.3549,45.8602
1977-10-24 02:59:00 UTC,2443440.624306,29.1900,-87.6367,0090,1.79,1.49,2.3290,50.2259
1977-10-24 03:59:00 UTC,2443440.665972,29.1900,-87.6367,0090,1.83,1.43,2.3225,51.9952
1977-10-24 04:59:00 UTC,2443440.707639,29.1900,-87.6367,0090,1.82,1.28,2.2250,54.8814
1977-10-24 05:59:00 UTC,2443440.749306,29.1900,-87.6367,0090,1.88,1.22,2.2412,57.0190
1977-10-24 06:59:00 UTC,2443440.790972,29.1900,-87.6367,0090,1.98,1.35,2.3964,55.7131
1977-10-24 07:59:00 UTC,2443440.832639,29.1900,-87.6367,0090,2.13,1.42,2.5599,56.3099
1977-10-24 08:59:00 UTC,2443440.874306,29.1900,-87.6367,0090,2.11,1.34,2.4995,57.5815
1977-10-24 09:59:00 UTC,2443440.915972,29.1900,-87.6367,0090,1.88,1.29,2.2800,55.5432
1977-10-24 10:59:00 UTC,2443440.957639,29.1900,-87.6367,0090,1.71,1.13,2.0496,56.5425
1977-10-24 11:59:00 UTC,2443440.999306,29.1900,-87.6367,0090,1.51,1.01,1.8166,56.2225
1977-10-24 12:59:00 UTC,2443441.040972,29.1900,-87.6367,0090,1.50,1.02,1.8139,55.7843
1977-10-24 13:59:00 UTC,2443441.082639,29.1900,-87.6367,0090,1.40,0.79,1.6075,60.5646
1977-10-24 14:59:00 UTC,2443441.124306,29.1900,-87.6367,0090,1.20,0.55,1.3200,65.3764
1977-10-24 15:59:00 UTC,2443441.165972,29.1900,-87.6367,0090,1.47,0.69,1.6239,64.8552
1977-10-24 16:59:00 UTC,2443441.207639,29.1900,-87.6367,0090,1.36,0.70,1.5296,62.7649
1977-10-24 17:59:00 UTC,2443441.249306,29.1900,-87.6367,0090,1.08,0.45,1.1700,67.3801
1977-10-24 18:59:00 UTC,2443441.290972,29.1900,-87.6367,0090,1.07,0.34,1.1227,72.3720
1977-10-24 19:59:00 UTC,2443441.332639,29.1900,-87.6367,0090,0.89,0.50,1.0208,60.6728
1977-10-24 20:59:00 UTC,2443441.374306,29.1900,-87.6367,0090,0.83,0.58,1.0126,55.0543
1977-10-24 21:59:00 UTC,2443441.415972,29.1900,-87.6367,0090,0.90,0.60,1.0817,56.3099
1977-10-24 22:59:00 UTC,2443441.457639,29.1900,-87.6367,0090,0.88,0.82,1.2028,47.0214
1977-10-24 23:59:00 UTC,2443441.499306,29.1900,-87.6367,0090,0.76,1.05,1.2962,35.8974
1977-10-25 00:59:00 UTC,2443441.540972,29.1900,-87.6367,0090,0.75,1.18,1.3982,32.4398
1977-10-25 01:59:00 UTC,2443441.582639,29.1900,-87.6367,0090,0.88,1.30,1.5698,34.0950
1977-10-25 02:59:00 UTC,2443441.624306,29.1900,-87.6367,0090,0.76,1.12,1.3535,34.1597
1977-10-25 03:59:00 UTC,2443441.665972,29.1900,-87.6367,0090,0.89,1.24,1.5263,35.6686
1977-10-25 04:59:00 UTC,2443441.707639,29.1900,-87.6367,0090,1.27,1.40,1.8902,42.2125
1977-10-25 05:59:00 UTC,2443441.749306,29.1900,-87.6367,0090,1.44,1.26,1.9134,48.8141
1977-10-25 06:59:00 UTC,2443441.790972,29.1900,-87.6367,0090,1.36,1.42,1.9662,43.7636
1977-10-25 07:59:00 UTC,2443441.832639,29.1900,-87.6367,0090,1.33,1.59,2.0729,39.9117
1977-10-25 08:59:00 UTC,2443441.874306,29.1900,-87.6367,0090,1.51,1.51,2.1355,45.0000
1977-10-25 09:59:00 UTC,2443441.915972,29.1900,-87.6367,0090,1.64,1.34,2.1178,50.7487
1977-10-25 10:59:00 UTC,2443441.957639,29.1900,-87.6367,0090,1.86,1.22,2.2244,56.7386
1977-10-25 11:59:00 UTC,2443441.999306,29.1900,-87.6367,0090,1.96,1.09,2.2427,60.9206
1977-10-25 12:59:00 UTC,2443442.040972,29.1900,-87.6367,0090,1.95,0.89,2.1435,65.4676
1977-10-25 13:59:00 UTC,2443442.082639,29.1900,-87.6367,0090,1.98,0.74,2.1138,69.5074
1977-10-25 14:59:00 UTC,2443442.124306,29.1900,-87.6367,0090,1.92,0.65,2.0270,71.2969
1977-10-25 15:59:00 UTC,2443442.165972,29.1900,-87.6367,0090,1.85,0.52,1.9217,74.3003
1977-10-25 16:59:00 UTC,2443442.207639,29.1900,-87.6367,0090,1.58,0.19,1.5914,83.1429
1977-10-25 17:59:00 UTC,2443442.249306,29.1900,-87.6367,0090,1.10,0.13,1.1077,83.2599
1977-10-25 18:59:00 UTC,2443442.290972,29.1900,-87.6367,0090,0.89,0.24,0.9218,74.9084
1977-10-25 19:59:00 UTC,2443442.332639,29.1900,-87.6367,0090,0.89,0.34,0.9527,69.0920
1977-10-25 20:59:00 UTC,2443442.374306,29.1900,-87.6367,0090,1.02,0.61,1.1885,59.1189
1977-10-25 21:59:00 UTC,2443442.415972,29.1900,-87.6367,0090,1.05,1.15,1.5572,42.3974
1977-10-25 22:59:00 UTC,2443442.457639,29.1900,-87.6367,0090,1.17,1.41,1.8322,39.6855
1977-10-25 23:59:00 UTC,2443442.499306,29.1900,-87.6367,0090,1.45,1.16,1.8569,51.3402
1977-10-26 00:59:00 UTC,2443442.540972,29.1900,-87.6367,0090,1.64,1.02,1.9313,58.1204
1977-10-26 01:59:00 UTC,2443442.582639,29.1900,-87.6367,0090,1.63,1.02,1.9228,57.9630
1977-10-26 02:59:00 UTC,2443442.624306,29.1900,-87.6367,0090,1.46,0.94,1.7364,57.2251
1977-10-26 03:59:00 UTC,2443442.665972,29.1900,-87.6367,0090,1.37,0.93,1.6558,55.8301
1977-10-26 04:59:00 UTC,2443442.707639,29.1900,-87.6367,0090,1.53,1.03,1.8444,56.0515
1977-10-26 05:59:00 UTC,2443442.749306,29.1900,-87.6367,0090,1.55,1.15,1.9300,53.4270
1977-10-26 06:59:00 UTC,2443442.790972,29.1900,-87.6367,0090,1.61,1.32,2.0819,50.6525
1977-10-26 07:59:00 UTC,2443442.832639,29.1900,-87.6367,0090,1.68,0.85,1.8828,63.1628
1977-10-26 08:59:00 UTC,2443442.874306,29.1900,-87.6367,0090,1.50,0.33,1.5359,77.5926
1977-10-26 09:59:00 UTC,2443442.915972,29.1900,-87.6367,0090,1.59,0.69,1.7333,66.5410
1977-10-26 10:59:00 UTC,2443442.957639,29.1900,-87.6367,0090,1.77,0.90,1.9857,63.0478
1977-10-26 11:59:00 UTC,2443442.999306,29.1900,-87.6367,0090,1.73,0.71,1.8700,67.6865
1977-10-26 12:59:00 UTC,2443443.040972,29.1900,-87.6367,0090,1.34,0.47,1.4200,70.6719
1977-10-26 13:59:00 UTC,2443443.082639,29.1900,-87.6367,0090,1.36,0.58,1.4785,66.9032
1977-10-26 14:59:00 UTC,2443443.124306,29.1900,-87.6367,0090,1.53,0.68,1.6743,66.0375
1977-10-26 15:59:00 UTC,2443443.165972,29.1900,-87.6367,0090,1.33,0.60,1.4591,65.7185
1977-10-26 16:59:00 UTC,2443443.207639,29.1900,-87.6367,0090,1.31,0.65,1.4624,63.6102
1977-10-26 17:59:00 UTC,2443443.249306,29.1900,-87.6367,0090,1.35,0.65,1.4983,64.2900
1977-10-26 18:59:00 UTC,2443443.290972,29.1900,-87.6367,0090,1.15,0.81,1.4066,54.8411
1977-10-26 19:59:00 UTC,2443443.332639,29.1900,-87.6367,0090,0.97,0.86,1.2963,48.4399
1977-10-26 20:59:00 UTC,2443443.374306,29.1900,-87.6367,0090,0.99,0.67,1.1954,55.9111
1977-10-26 21:59:00 UTC,2443443.415972,29.1900,-87.6367,0090,0.89,0.66,1.1080,53.4404
1977-10-26 22:59:00 UTC,2443443.457639,29.1900,-87.6367,0090,0.93,0.68,1.1521,53.8264
1977-10-26 23:59:00 UTC,2443443.499306,29.1900,-87.6367,0090,1.00,0.84,1.3060,49.9697
1977-10-27 00:59:00 UTC,2443443.540972,29.1900,-87.6367,0090,1.17,0.97,1.5198,50.3392
1977-10-27 01:59:00 UTC,2443443.582639,29.1900,-87.6367,0090,1.36,0.87,1.6145,57.3927
1977-10-27 02:59:00 UTC,2443443.624306,29.1900,-87.6367,0090,1.27,0.90,1.5566,54.6763
1977-10-27 03:59:00 UTC,2443443.665972,29.1900,-87.6367,0090,1.16,0.97,1.5121,50.0974
1977-10-27 04:59:00 UTC,2443443.707639,29.1900,-87.6367,0090,1.06,0.94,1.4168,48.4336
1977-10-27 05:59:00 UTC,2443443.749306,29.1900,-87.6367,0090,0.96,0.94,1.3436,45.6031
1977-10-27 06:59:00 UTC,2443443.790972,29.1900,-87.6367,0090,1.11,0.96,1.4675,49.1446
1977-10-27 07:59:00 UTC,2443443.832639,29.1900,-87.6367,0090,1.13,0.98,1.4958,49.0663
1977-10-27 08:59:00 UTC,2443443.874306,29.1900,-87.6367,0090,0.98,1.01,1.4073,44.1363
1977-10-27 09:59:00 UTC,2443443.915972,29.1900,-87.6367,0090,0.80,1.05,1.3200,37.3039
1977-10-27 10:59:00 UTC,2443443.957639,29.1900,-87.6367,0090,0.82,1.21,1.4617,34.1249
1977-10-27 11:59:00 UTC,2443443.999306,29.1900,-87.6367,0090,1.04,1.29,1.6570,38.8758
1977-10-27 12:59:00 UTC,2443444.040972,29.1900,-87.6367,0090,1.05,1.42,1.7660,36.4806
1977-10-27 13:59:00 UTC,2443444.082639,29.1900,-87.6367,0090,1.08,1.62,1.9470,33.6901
1977-10-27 14:59:00 UTC,2443444.124306,29.1900,-87.6367,0090,1.02,1.69,1.9740,31.1131
1977-10-27 15:59:00 UTC,2443444.165972,29.1900,-87.6367,0090,1.05,1.94,2.2059,28.4239
1977-10-27 16:59:00 UTC,2443444.207639,29.1900,-87.6367,0090,1.28,1.99,2.3661,32.7498
1977-10-27 17:59:00 UTC,2443444.249306,29.1900,-87.6367,0090,1.19,1.32,1.7772,42.0351
1977-10-27 18:59:00 UTC,2443444.290972,29.1900,-87.6367,0090,0.99,1.06,1.4504,43.0443
1977-10-27 19:59:00 UTC,2443444.332639,29.1900,-87.6367,0090,0.74,1.03,1.2683,35.6952
1977-10-27 20:59:00 UTC,2443444.374306,29.1900,-87.6367,0090,0.57,0.76,0.9500,36.8699
1977-10-27 21:59:00 UTC,2443444.415972,29.1900,-87.6367,0090,0.56,0.96,1.1114,30.2564
1977-10-27 22:59:00 UTC,2443444.457639,29.1900,-87.6367,0090,0.48,0.95,1.0644,26.8058
1977-10-27 23:59:00 UTC,2443444.499306,29.1900,-87.6367,0090,0.37,0.68,0.7741,28.5514
1977-10-28 00:59:00 UTC,2443444.540972,29.1900,-87.6367,0090,0.26,0.74,0.7843,19.3590
1977-10-28 01:59:00 UTC,2443444.582639,29.1900,-87.6367,0090,0.34,0.94,0.9996,19.8852
1977-10-28 02:59:00 UTC,2443444.624306,29.1900,-87.6367,0090,0.42,0.93,1.0204,24.3045
1977-10-28 03:59:00 UTC,2443444.665972,29.1900,-87.6367,0090,0.28,0.89,0.9330,17.4639
1977-10-28 04:59:00 UTC,2443444.707639,29.1900,-87.6367,0090,0.22,1.00,1.0239,12.4074
1977-10-28 05:59:00 UTC,2443444.749306,29.1900,-87.6367,0090,0.19,1.00,1.0179,10.7580
1977-10-28 06:59:00 UTC,2443444.790972,29.1900,-87.6367,0090,0.19,1.03,1.0474,10.4516
1977-10-28 07:59:00 UTC,2443444.832639,29.1900,-87.6367,0090,0.27,1.13,1.1618,13.4382
1977-10-28 08:59:00 UTC,2443444.874306,29.1900,-87.6367,0090,0.47,1.13,1.2238,22.5839
1977-10-28 09:59:00 UTC,2443444.915972,29.1900,-87.6367,0090,0.83,1.03,1.3228,38.8627
1977-10-28 10:59:00 UTC,2443444.957639,29.1900,-87.6367,0090,0.94,1.31,1.6124,35.6616
1977-10-28 11:59:00 UTC,2443444.999306,29.1900,-87.6367,0090,0.93,1.41,1.6891,33.4078
1977-10-28 12:59:00 UTC,2443445.040972,29.1900,-87.6367,0090,1.04,1.22,1.6031,40.4462
1977-10-28 13:59:00 UTC,2443445.082639,29.1900,-87.6367,0090,1.18,0.95,1.5149,51.1630
1977-10-28 14:59:00 UTC,2443445.124306,29.1900,-87.6367,0090,1.20,0.84,1.4648,55.0080
1977-10-28 15:59:00 UTC,2443445.165972,29.1900,-87.6367,0090,0.92,0.81,1.2258,48.6382
1977-10-28 16:59:00 UTC,2443445.207639,29.1900,-87.6367,0090,0.67,0.52,0.8481,52.1843
1977-10-28 17:59:00 UTC,2443445.249306,29.1900,-87.6367,0090,0.72,0.62,0.9502,49.2679
1977-10-28 18:59:00 UTC,2443445.290972,29.1900,-87.6367,0090,0.69,0.77,1.0339,41.8636
1977-10-28 19:59:00 UTC,2443445.332639,29.1900,-87.6367,0090,0.45,0.80,0.9179,29.3578
1977-10-28 20:59:00 UTC,2443445.374306,29.1900,-87.6367,0090,0.32,1.12,1.1648,15.9454
1977-10-28 21:59:00 UTC,2443445.415972,29.1900,-87.6367,0090,0.29,1.40,1.4297,11.7029
1977-10-28 22:59:00 UTC,2443445.457639,29.1900,-87.6367,0090,0.30,1.39,1.4220,12.1792
1977-10-28 23:59:00 UTC,2443445.499306,29.1900,-87.6367,0090,0.44,1.73,1.7851,14.2698
1977-10-29 00:59:00 UTC,2443445.540972,29.1900,-87.6367,0090,0.40,1.80,1.8439,12.5288
1977-10-29 01:59:00 UTC,2443445.582639,29.1900,-87.6367,0090,0.29,1.49,1.5180,11.0138
1977-10-29 02:59:00 UTC,2443445.624306,29.1900,-87.6367,0090,0.43,1.49,1.5508,16.0976
1977-10-29 03:59:00 UTC,2443445.665972,29.1900,-87.6367,0090,0.54,1.62,1.7076,18.4349
1977-10-29 04:59:00 UTC,2443445.707639,29.1900,-87.6367,0090,0.45,1.87,1.9234,13.5305
1977-10-29 05:59:00 UTC,2443445.749306,29.1900,-87.6367,0090,0.62,1.82,1.9227,18.8119
1977-10-29 06:59:00 UTC,2443445.790972,29.1900,-87.6367,0090,0.93,1.85,2.0706,26.6888
1977-10-29 07:59:00 UTC,2443445.832639,29.1900,-87.6367,0090,0.89,1.92,2.1162,24.8697
1977-10-29 08:59:00 UTC,2443445.874306,29.1900,-87.6367,0090,0.74,1.96,2.0950,20.6841
1977-10-29 09:59:00 UTC,2443445.915972,29.1900,-87.6367,0090,0.81,2.09,2.2415,21.1843
1977-10-29 10:59:00 UTC,2443445.957639,29.1900,-87.6367,0090,0.90,2.08,2.2664,23.3978
1977-10-29 11:59:00 UTC,2443445.999306,29.1900,-87.6367,0090,1.12,2.11,2.3888,27.9596
1977-10-29 12:59:00 UTC,2443446.040972,29.1900,-87.6367,0090,1.29,2.14,2.4987,31.0817
1977-10-29 13:59:00 UTC,2443446.082639,29.1900,-87.6367,0090,1.30,2.15,2.5125,31.1593
1977-10-29 14:59:00 UTC,2443446.124306,29.1900,-87.6367,0090,1.42,2.05,2.4938,34.7097
1977-10-29 15:59:00 UTC,2443446.165972,29.1900,-87.6367,0090,1.34,1.94,2.3578,34.6337
1977-10-29 16:59:00 UTC,2443446.207639,29.1900,-87.6367,0090,1.30,1.82,2.2366,35.5377
1977-10-29 17:59:00 UTC,2443446.249306,29.1900,-87.6367,0090,1.37,1.64,2.1369,39.8742
1977-10-29 18:59:00 UTC,2443446.290972,29.1900,-87.6367,0090,1.28,1.46,1.9416,41.2414
1977-10-29 19:59:00 UTC,2443446.332639,29.1900,-87.6367,0090,1.12,1.37,1.7695,39.2666
1977-10-29 20:59:00 UTC,2443446.374306,29.1900,-87.6367,0090,0.94,1.49,1.7617,32.2467
1977-10-29 21:59:00 UTC,2443446.415972,29.1900,-87.6367,0090,0.93,1.63,1.8766,29.7070
1977-10-29 22:59:00 UTC,2443446.457639,29.1900,-87.6367,0090,0.96,1.60,1.8659,30.9638
1977-10-29 23:59:00 UTC,2443446.499306,29.1900,-87.6367,0090,0.81,1.57,1.7666,27.2903
1977-10-30 00:59:00 UTC,2443446.540972,29.1900,-87.6367,0090,0.64,1.64,1.7605,21.3179
1977-10-30 01:59:00 UTC,2443446.582639,29.1900,-87.6367,0090,0.94,1.66,1.9077,29.5214
1977-10-30 02:59:00 UTC,2443446.624306,29.1900,-87.6367,0090,1.16,1.64,2.0088,35.2724
1977-10-30 03:59:00 UTC,2443446.665972,29.1900,-87.6367,0090,0.95,1.66,1.9126,29.7820
1977-10-30 04:59:00 UTC,2443446.707639,29.1900,-87.6367,0090,1.11,1.62,1.9638,34.4184
1977-10-30 05:59:00 UTC,2443446.749306,29.1900,-87.6367,0090,1.28,1.47,1.9492,41.0477
1977-10-30 06:59:00 UTC,2443446.790972,29.1900,-87.6367,0090,1.26,1.34,1.8393,43.2376
1977-10-30 07:59:00 UTC,2443446.832639,29.1900,-87.6367,0090,1.28,1.22,1.7683,46.3748
1977-10-30 08:59:00 UTC,2443446.874306,29.1900,-87.6367,0090,1.28,1.08,1.6748,49.8440
1977-10-30 09:59:00 UTC,2443446.915972,29.1900,-87.6367,0090,1.22,0.83,1.4756,55.7715
1977-10-30 10:59:00 UTC,2443446.957639,29.1900,-87.6367,0090,1.05,0.72,1.2731,55.5610